EW3966 Weather Reports


Display with metric or nautical units.
time (UTC)temp
F
wind
direction
speed
MPH
gust
MPH
rain 1hr
in
rain 24hr
in
rain mn
in
humidity
%
barometer
mb
20260505230540 52 240 5.0 11.0 0.00 0.00 0.00 73 1014.4
20260505230051 52 185 1.0 9.0 0.00 0.00 0.00 72 1014.4
20260505225539 52 220 3.0 11.0 0.00 0.00 0.00 72 1014.2
20260505225039 52 203 4.0 11.0 0.00 0.00 0.00 71 1014.2
20260505224536 53 255 2.0 10.0 0.00 0.00 0.00 71 1014.2
20260505224040 53 185 5.0 10.0 0.00 0.00 0.00 70 1014.0
20260505223534 53 205 3.0 13.0 0.00 0.00 0.00 69 1013.9
20260505223040 54 256 2.0 13.0 0.00 0.00 0.00 69 1013.8
20260505222036 54 222 5.0 15.0 0.00 0.00 0.00 69 1013.5
20260505221536 54 232 4.0 15.0 0.00 0.00 0.00 68 1013.4
20260505221035 54 222 4.0 19.0 0.00 0.00 0.00 68 1013.3
20260505220532 54 264 6.0 19.0 0.00 0.00 0.00 68 1013.3
20260505220035 55 246 6.0 20.0 0.00 0.00 0.00 67 1013.1
20260505215531 55 213 6.0 20.0 0.00 0.00 0.00 66 1013.2
20260505215030 55 268 6.0 15.0 0.00 0.00 0.00 66 1013.0
20260505214530 55 218 7.0 15.0 0.00 0.00 0.00 65 1012.9
20260505214029 56 210 8.0 18.0 0.00 0.00 0.00 64 1012.9
20260505213528 56 229 7.0 19.0 0.00 0.00 0.00 63 1012.7
20260505213038 56 234 7.0 16.0 0.00 0.00 0.00 62 1012.6
20260505212027 57 178 5.0 16.0 0.00 0.00 0.00 57 1012.4
20260505211527 58 272 6.0 19.0 0.00 0.00 0.00 54 1012.2
20260505211027 58 216 7.0 19.0 0.00 0.00 0.00 52 1012.1
20260505210526 59 261 5.0 22.0 0.00 0.00 0.00 49 1012.2
20260505210026 59 236 8.0 22.0 0.00 0.00 0.00 47 1012.2
20260505205524 59 241 9.0 19.0 0.00 0.00 0.00 45 1012.0
20260505205025 60 249 7.0 20.0 0.00 0.00 0.00 44 1012.1
20260505204524 60 204 9.0 20.0 0.00 0.00 0.00 43 1012.0
20260505204025 60 284 11.0 20.0 0.00 0.00 0.00 41 1011.8
20260505203524 60 217 8.0 24.0 0.00 0.00 0.00 41 1011.8
20260505203036 60 249 7.0 16.0 0.00 0.00 0.00 41 1011.9
20260505202022 60 159 8.0 26.0 0.00 0.00 0.00 40 1011.8
20260505201522 60 216 10.0 26.0 0.00 0.00 0.00 40 1011.7
20260505201023 60 257 8.0 22.0 0.00 0.00 0.00 39 1011.7
20260505200523 60 209 8.0 22.0 0.00 0.00 0.00 39 1011.7
20260505200031 60 271 8.0 22.0 0.00 0.00 0.00 40 1011.7
20260505195519 60 232 9.0 22.0 0.00 0.00 0.00 41 1011.6
20260505195021 60 197 8.0 24.0 0.00 0.00 0.00 41 1011.5
20260505194518 60 191 9.0 19.0 0.00 0.00 0.00 41 1011.4
20260505194018 60 214 9.0 24.0 0.00 0.00 0.00 42 1011.3
20260505193517 60 206 10.0 23.0 0.00 0.00 0.00 43 1011.3
20260505193017 60 224 8.0 25.0 0.00 0.00 0.00 43 1011.3
20260505192018 60 205 12.0 25.0 0.00 0.00 0.00 41 1011.2
20260505191517 60 241 12.0 25.0 0.00 0.00 0.00 42 1011.1
20260505191016 60 217 8.0 26.0 0.00 0.00 0.00 43 1011.1
20260505190519 60 216 11.0 26.0 0.00 0.00 0.00 44 1011.0
20260505190016 60 236 6.0 22.0 0.00 0.00 0.00 44 1010.9
20260505185518 60 220 11.0 23.0 0.00 0.00 0.00 43 1010.8
20260505185014 60 227 9.0 28.0 0.00 0.00 0.00 42 1010.7
20260505184519 59 204 10.0 33.0 0.00 0.00 0.00 43 1010.7
20260505184014 60 230 10.0 26.0 0.00 0.00 0.00 44 1010.7
20260505183513 60 250 10.0 26.0 0.00 0.00 0.00 44 1010.6
20260505183013 59 205 9.0 24.0 0.00 0.00 0.00 45 1010.6
20260505182012 60 226 9.0 25.0 0.00 0.00 0.00 44 1010.6
20260505181512 60 230 9.0 26.0 0.00 0.00 0.00 43 1010.6
20260505181011 60 284 8.0 29.0 0.00 0.00 0.00 44 1010.6
20260505180518 59 245 11.0 29.0 0.00 0.00 0.00 43 1010.7
20260505180010 60 212 9.0 27.0 0.00 0.00 0.00 43 1010.4
20260505175510 60 255 12.0 28.0 0.00 0.00 0.00 42 1010.7
20260505175009 60 218 10.0 29.0 0.00 0.00 0.00 40 1010.7
20260505174514 60 237 10.0 29.0 0.00 0.00 0.00 41 1010.5
20260505174009 60 225 8.0 29.0 0.00 0.00 0.00 42 1010.5
20260505173512 60 264 11.0 23.0 0.00 0.00 0.00 42 1010.6
20260505173018 60 220 10.0 29.0 0.00 0.00 0.00 43 1010.6
20260505172007 60 172 10.0 29.0 0.00 0.00 0.00 42 1010.4
20260505171507 60 200 9.0 29.0 0.00 0.00 0.00 43 1010.5
20260505171010 60 278 11.0 29.0 0.00 0.00 0.00 44 1010.2
20260505170504 60 275 12.0 29.0 0.00 0.00 0.00 43 1010.2
20260505170004 60 228 10.0 29.0 0.00 0.00 0.00 42 1010.3
20260505165503 60 164 11.0 29.0 0.00 0.00 0.00 41 1010.1
20260505165003 60 234 10.0 32.0 0.00 0.00 0.00 40 1010.1
20260505164503 60 185 10.0 32.0 0.00 0.00 0.00 39 1010.3
20260505164003 60 255 9.0 27.0 0.00 0.00 0.00 39 1010.2
20260505163501 59 257 10.0 27.0 0.00 0.00 0.00 39 1009.9
20260505163009 59 245 11.0 21.0 0.00 0.00 0.00 39 1009.9
20260505162001 59 278 12.0 29.0 0.00 0.00 0.00 40 1010.0
20260505161600 59 266 10.0 25.0 0.00 0.00 0.00 40 1009.8
20260505161059 59 205 9.0 25.0 0.00 0.00 0.00 42 1009.7
20260505160559 59 232 12.0 23.0 0.00 0.00 0.00 41 1009.7
20260505153108 59 216 9.0 21.0 0.00 0.00 0.00 46 1009.3
20260505152052 58 234 10.0 23.0 0.00 0.00 0.00 46 1009.3
20260505151556 58 289 9.0 22.0 0.00 0.00 0.00 46 1009.3
20260505151052 58 234 10.0 24.0 0.00 0.00 0.00 48 1009.0
20260505150549 58 201 10.0 24.0 0.00 0.00 0.00 48 1009.1
20260505140543 55 197 9.0 21.0 0.00 0.00 0.00 60 1008.8
20260505125031 53 228 6.0 14.0 0.00 0.00 0.00 72 1008.1
20260505124531 53 200 7.0 20.0 0.00 0.00 0.00 72 1007.9
20260505124029 52 231 7.0 20.0 0.00 0.00 0.00 74 1007.9
20260505123528 52 267 9.0 20.0 0.00 0.00 0.00 75 1007.9
20260505123028 52 195 7.0 20.0 0.00 0.00 0.00 74 1007.8
20260505122027 52 212 5.0 16.0 0.00 0.00 0.00 77 1007.6
20260505121529 51 219 7.0 28.0 0.00 0.00 0.00 77 1007.6
20260505121025 50 194 9.0 28.0 0.00 0.00 0.00 77 1007.3
20260505120524 51 180 7.0 22.0 0.00 0.00 0.00 77 1007.4
20260505120023 50 200 10.0 24.0 0.00 0.00 0.00 78 1007.3
20260505115523 50 209 8.0 24.0 0.00 0.00 0.00 78 1007.2
20260505115024 50 254 9.0 21.0 0.00 0.00 0.00 77 1007.2
20260505114532 50 185 7.0 21.0 0.00 0.00 0.00 78 1007.3
20260505114022 50 216 6.0 21.0 0.00 0.00 0.00 78 1007.4
20260505113521 50 230 6.0 20.0 0.00 0.00 0.00 78 1007.4
20260505113020 50 253 5.0 18.0 0.00 0.00 0.00 78 1007.5
20260505112019 50 223 7.0 20.0 0.00 0.00 0.00 78 1007.4
20260505111519 49 224 6.0 20.0 0.00 0.00 0.00 78 1007.3
20260505111018 49 217 6.0 22.0 0.00 0.00 0.00 78 1007.2
20260505110517 50 239 8.0 22.0 0.00 0.00 0.00 77 1007.0
20260505102008 47 272 7.0 16.0 0.00 0.00 0.00 81 1006.1
20260505101508 47 215 8.0 15.0 0.00 0.00 0.00 81 1006.0
20260505101007 46 257 6.0 18.0 0.00 0.00 0.00 82 1006.1
20260505100506 46 201 8.0 18.0 0.00 0.00 0.00 82 1006.0
20260505100008 46 237 6.0 15.0 0.00 0.00 0.00 82 1005.8
20260505095505 46 222 6.0 15.0 0.00 0.00 0.00 83 1005.7
20260505095003 45 168 5.0 15.0 0.00 0.00 0.00 83 1005.8
20260505094504 45 234 6.0 18.0 0.00 0.00 0.00 83 1005.9
20260505094001 45 246 6.0 18.0 0.00 0.00 0.00 84 1005.8
20260505093600 44 261 6.0 14.0 0.00 0.00 0.00 84 1005.5
20260505093102 44 201 6.0 14.0 0.00 0.00 0.00 84 1005.4
20260505092659 43 240 6.0 18.0 0.00 0.00 0.00 85 1005.5
20260505092058 43 229 8.0 18.0 0.00 0.00 0.00 85 1005.4
20260505091602 43 219 7.0 14.0 0.00 0.00 0.00 85 1005.2
20260505091058 43 212 5.0 13.0 0.00 0.00 0.00 86 1005.1
20260505090558 42 260 6.0 14.0 0.00 0.00 0.00 86 1005.1
20260505090101 42 261 6.0 14.0 0.00 0.00 0.00 86 1005.0
20260505085558 42 237 7.0 15.0 0.00 0.00 0.00 87 1005.1
20260505085105 42 255 5.0 18.0 0.00 0.00 0.00 87 1005.1
20260505084557 41 230 6.0 12.0 0.00 0.00 0.00 87 1005.2
20260505084058 41 258 5.0 19.0 0.00 0.00 0.00 87 1005.2
20260505083557 41 219 6.0 19.0 0.00 0.00 0.00 87 1005.3
20260505083056 41 253 6.0 15.0 0.00 0.00 0.00 87 1005.2
20260505082656 41 210 6.0 20.0 0.00 0.00 0.00 87 1005.0
20260505082056 41 234 7.0 20.0 0.00 0.00 0.00 87 1005.0
20260505081602 41 311 4.0 13.0 0.00 0.00 0.00 87 1004.9
20260505081056 41 208 6.0 14.0 0.00 0.00 0.00 86 1005.1
20260505080554 41 214 5.0 14.0 0.00 0.00 0.00 86 1005.0
20260505080055 41 140 5.0 13.0 0.00 0.00 0.00 86 1005.0
20260505075558 41 172 7.0 13.0 0.00 0.00 0.00 86 1005.1
20260505075053 41 236 6.0 15.0 0.00 0.00 0.00 86 1004.9
20260505074608 40 248 7.0 15.0 0.00 0.00 0.00 86 1004.7
20260505074052 40 240 5.0 12.0 0.00 0.00 0.00 86 1004.7
20260505073552 40 268 6.0 12.0 0.00 0.00 0.00 86 1004.5
20260505073054 40 299 4.0 13.0 0.00 0.00 0.00 86 1004.5
20260505072654 40 278 7.0 16.0 0.00 0.00 0.00 86 1004.5
20260505072052 40 194 7.0 16.0 0.00 0.00 0.00 86 1004.5
20260505071551 40 185 7.0 15.0 0.00 0.00 0.00 86 1004.4
20260505071051 40 220 4.0 16.0 0.00 0.00 0.00 86 1004.5
20260505070551 40 235 6.0 16.0 0.00 0.00 0.00 86 1004.4
20260505070052 40 244 6.0 13.0 0.00 0.00 0.00 86 1004.3
20260505065550 40 228 4.0 13.0 0.00 0.00 0.00 86 1004.3
20260505065050 40 226 7.0 13.0 0.00 0.00 0.00 86 1004.4
20260505064550 40 280 4.0 13.0 0.00 0.00 0.00 86 1004.4
20260505064049 40 262 5.0 14.0 0.00 0.00 0.00 85 1004.5
20260505063549 40 239 6.0 14.0 0.00 0.00 0.00 85 1004.6
20260505063050 40 237 5.0 15.0 0.00 0.00 0.00 85 1004.4
20260505062647 40 219 7.0 15.0 0.00 0.00 0.00 84 1004.3
20260505062044 40 274 5.0 15.0 0.00 0.00 0.00 84 1004.2
20260505061614 40 307 6.0 13.0 0.00 0.00 0.00 84 1004.2
20260505061044 40 243 7.0 15.0 0.00 0.00 0.00 83 1004.2
20260505060550 41 256 8.0 19.0 0.00 0.00 0.00 83 1004.2
20260505060046 41 191 8.0 19.0 0.00 0.00 0.00 83 1004.2
20260505055542 41 209 8.0 14.0 0.00 0.00 0.00 83 1004.0
20260505055044 41 224 6.0 14.0 0.00 0.00 0.00 83 1004.0
20260505054555 41 159 5.0 19.0 0.00 0.00 0.00 83 1003.9
20260505054044 41 177 6.0 14.0 0.00 0.00 0.00 83 1003.7
20260505053539 41 199 6.0 16.0 0.00 0.00 0.00 83 1003.7
20260505053039 41 175 8.0 16.0 0.00 0.00 0.00 83 1003.7
20260505052641 41 209 7.0 13.0 0.00 0.00 0.00 84 1003.5
20260505052039 41 212 4.0 15.0 0.00 0.00 0.00 84 1003.5
20260505051539 41 268 6.0 22.0 0.00 0.00 0.00 84 1003.5
20260505051038 41 216 8.0 22.0 0.00 0.00 0.00 84 1003.5
20260505050539 41 209 8.0 21.0 0.00 0.00 0.00 83 1003.5
20260505041532 41 232 5.0 18.0 0.00 0.00 0.00 83 1003.4
20260505041031 41 185 8.0 18.0 0.00 0.00 0.00 82 1003.4
20260505040530 41 187 4.0 14.0 0.00 0.00 0.00 82 1003.4
20260505040032 41 191 5.0 12.0 0.00 0.00 0.00 82 1003.4
20260505035530 42 178 4.0 12.0 0.00 0.00 0.00 82 1003.4
20260505035027 42 254 5.0 12.0 0.00 0.00 0.00 82 1003.4
20260505034527 42 232 6.0 14.0 0.00 0.00 0.00 81 1003.3
20260505034026 42 244 3.0 13.0 0.00 0.00 0.00 82 1003.4
20260505033529 42 209 5.0 14.0 0.00 0.00 0.00 82 1003.3
20260505033034 42 213 4.0 19.0 0.00 0.00 0.00 82 1003.3
20260505032625 43 197 4.0 14.0 0.00 0.00 0.00 82 1003.3
20260505032026 43 191 3.0 14.0 0.00 0.00 0.00 82 1003.3
20260505031524 43 208 6.0 14.0 0.00 0.00 0.00 82 1003.3
20260505031022 43 237 4.0 14.0 0.00 0.00 0.00 82 1003.1
20260505030521 43 207 5.0 11.0 0.00 0.00 0.00 81 1003.0
20260505030020 43 241 3.0 10.0 0.00 0.00 0.00 81 1002.9
20260505025521 43 243 4.0 11.0 0.00 0.00 0.00 82 1002.8
20260505025018 43 223 6.0 11.0 0.00 0.00 0.00 82 1002.7
20260505024538 44 266 5.0 18.0 0.00 0.00 0.00 82 1002.7
20260505024020 44 225 7.0 18.0 0.00 0.00 0.00 82 1002.5
20260505023518 44 243 4.0 19.0 0.00 0.00 0.00 81 1002.6
20260505023013 44 201 6.0 19.0 0.00 0.00 0.00 81 1002.6
20260505022614 44 197 7.0 18.0 0.00 0.00 0.00 81 1002.4
20260505022015 44 230 6.0 18.0 0.00 0.00 0.00 81 1002.5
20260505021528 44 219 7.0 20.0 0.00 0.00 0.00 81 1002.2
20260505021013 44 228 6.0 23.0 0.00 0.00 0.00 81 1002.1
20260505020512 44 192 10.0 23.0 0.00 0.00 0.00 81 1001.9
20260505020013 44 227 7.0 21.0 0.00 0.00 0.00 80 1001.8
20260505015517 44 217 7.0 19.0 0.00 0.00 0.00 81 1001.6
20260505015013 44 214 7.0 24.0 0.00 0.00 0.00 81 1001.5
20260505014513 44 257 8.0 24.0 0.00 0.00 0.00 81 1001.5
20260505014012 44 189 7.0 21.0 0.00 0.00 0.00 81 1001.5
20260505013512 44 205 8.0 21.0 0.00 0.00 0.00 81 1001.5
20260505013012 44 260 8.0 25.0 0.00 0.00 0.00 81 1001.3
20260505012612 44 272 9.0 25.0 0.00 0.00 0.00 82 1001.1
20260505012015 44 270 10.0 24.0 0.00 0.00 0.00 82 1001.1
20260505011512 44 266 9.0 25.0 0.00 0.00 0.00 82 1001.0
20260505011011 44 226 10.0 25.0 0.00 0.00 0.00 82 1001.0
20260505010512 44 66 9.0 23.0 0.00 0.00 0.00 82 1001.0
20260505010012 44 184 7.0 26.0 0.00 0.00 0.00 82 1001.0
20260505005512 44 239 11.0 26.0 0.00 0.00 0.00 82 1000.9
20260505005011 44 224 10.0 27.0 0.00 0.00 0.00 82 1001.1
20260505004521 44 245 8.0 27.0 0.00 0.00 0.00 82 1000.7
20260505004010 44 212 9.0 23.0 0.00 0.00 0.00 83 1000.7
20260505003510 44 216 10.0 27.0 0.00 0.00 0.00 83 1000.6
20260505003011 44 198 10.0 27.0 0.00 0.00 0.00 83 1000.2
20260505002613 44 265 8.0 28.0 0.00 0.00 0.00 83 1000.1
20260505002010 44 235 11.0 28.0 0.00 0.00 0.00 83 1000.1
20260505001510 43 197 9.0 26.0 0.00 0.00 0.00 83 999.9
20260505001010 44 271 9.0 26.0 0.00 0.00 0.00 83 999.9
20260505000511 44 235 10.0 26.0 0.00 0.00 0.00 84 999.8
20260505000011 44 185 8.0 24.0 0.00 0.00 0.00 84 999.6
20260504235510 44 206 10.0 22.0 0.00 0.00 0.00 84 999.5
20260504235012 43 209 8.0 22.0 0.00 0.00 0.00 84 999.2
20260504234509 43 227 10.0 24.0 0.00 0.00 0.00 84 999.1
20260504234012 43 261 8.0 27.0 0.00 0.00 0.00 84 998.8
20260504233508 43 263 8.0 23.0 0.00 0.00 0.00 84 998.6
20260504233008 43 250 8.0 24.0 0.00 0.00 0.00 84 998.6
20260504232609 43 204 11.0 28.0 0.00 0.00 0.00 84 998.2
20260504232010 43 199 10.0 28.0 0.00 0.00 0.00 84 998.1
20260504231510 43 207 11.0 31.0 0.00 0.00 0.00 84 998.0
20260504231009 43 168 12.0 31.0 0.00 0.00 0.00 84 997.9